EA4DB Madrid ES current weather conditions

sailwx.info

Wind from 270

Air temperature 19.4° C
Dewpoint 2.3° C

Last reported at 2015-Jan-26 15:46 UTC.
Time now 2015-Jan-26 16:29 UTC

Location: N 40°25' W 003°39'.
View on Google Maps.

See reports from other nearby stations

  
Tides and Currents Weather Stations Pressure Air Temp Water Temp Dewpoint Dewpoint Depression Visibility Wind Speed Wind Dir Waves Ship Positions
date/time (UTC)wind fromknots sea level pressurealtimeterstation pressurevisibilityair tempwater tempwave heightnotes
2015-Jan-26 15:46 270 19.4
2015-Jan-26 15:41 315 19.4
2015-Jan-26 15:36 270 1 gusting 3 18.3
2015-Jan-26 15:31 225 1 gusting 3 18.9
2015-Jan-26 15:26 180 1 gusting 3 18.9
2015-Jan-26 15:21 293 18.3
2015-Jan-26 15:16 135 16.7
2015-Jan-26 15:11 135 16.7
2015-Jan-26 15:06 225 16.7
2015-Jan-26 15:01 180 0 gusting 1 16.7
2015-Jan-26 14:56 270 16.7
2015-Jan-26 14:51 338 16.7
2015-Jan-26 14:46 225 16.1
2015-Jan-26 14:41 225 16.1
2015-Jan-26 14:36 225 1 gusting 3 15.6
2015-Jan-26 14:31 180 1 gusting 3 16.1
2015-Jan-26 14:26 16.1
2015-Jan-26 14:21 180 2 gusting 3 16.7
2015-Jan-26 14:16 180 1 gusting 5 16.7
2015-Jan-26 14:11 225 2 gusting 4 16.7
2015-Jan-26 14:06 180 0 gusting 3 16.7
2015-Jan-26 14:01 180 1 gusting 3 17.8
2015-Jan-26 13:56 270 16.7
2015-Jan-26 13:51 315 0 gusting 4 17.8
2015-Jan-26 13:46 135 18.3
2015-Jan-26 13:41 135 17.8
2015-Jan-26 13:36 225 0 gusting 3 17.8
2015-Jan-26 13:31 270 17.8
2015-Jan-26 13:26 270 0 gusting 4 17.2
2015-Jan-26 13:21 270 1 gusting 3 17.8
2015-Jan-26 13:16 225 0 gusting 3 17.2
2015-Jan-26 13:12 225 16.7
2015-Jan-26 13:06 135 1 gusting 3 17.8
2015-Jan-26 13:01 225 0 gusting 2 18.3
2015-Jan-26 12:56 248 1 gusting 3 18.3
2015-Jan-26 12:51 225 0 gusting 3 18.3
2015-Jan-26 12:46 225 1 gusting 3 17.8
2015-Jan-26 12:41 315 0 gusting 2 17.8
2015-Jan-26 12:36 225 0 gusting 3 17.2
2015-Jan-26 12:31 225 16.7
2015-Jan-26 12:26 090 16.7
2015-Jan-26 12:21 225 16.1
2015-Jan-26 12:16 225 1 gusting 3 15.6
2015-Jan-26 12:11 270 1 gusting 4 15.6
2015-Jan-26 12:01 090 15.6
2015-Jan-26 11:56 180 16.1
2015-Jan-26 11:51 315 0 gusting 1 15.6
2015-Jan-26 11:46 225 14.4
2015-Jan-26 11:41 248 13.3
2015-Jan-26 11:36 225 13.3
2015-Jan-26 11:31 135 14.4
2015-Jan-26 11:26 13.9
2015-Jan-26 11:21 180 1 gusting 6 13.3
2015-Jan-26 11:16 225 1 gusting 4 13.9
2015-Jan-26 11:11 270 14.4
2015-Jan-26 11:06 180 0 gusting 3 12.8
2015-Jan-26 10:56 225 1 gusting 6 20.6
2015-Jan-26 10:51 225 0 gusting 3 11.7
2015-Jan-26 10:46 225 1 gusting 6 11.1
2015-Jan-26 10:41 293 1 gusting 6 11.7
2015-Jan-26 10:36 270 6 gusting 7 12.2
2015-Jan-26 10:31 225 2 gusting 6 24.4
2015-Jan-26 10:26 225 0 gusting 4 12.8
2015-Jan-26 10:21 135 1 gusting 4 25.6
2015-Jan-26 10:16 270 13.3
2015-Jan-26 10:11 203 1 gusting 4 13.3
2015-Jan-26 10:06 225 2 gusting 4 12.2
2015-Jan-26 10:01 225 2 gusting 6 12.2
2015-Jan-26 09:56 180 1 gusting 3 12.2
2015-Jan-26 09:51 225 0 gusting 5 12.2
2015-Jan-26 09:46 135 2 gusting 3 12.2
2015-Jan-26 09:41 225 11.7
2015-Jan-26 09:36 225 1 gusting 4 12.2
2015-Jan-26 09:31 225 1 gusting 3 12.2
2015-Jan-26 09:26 225 1 gusting 3 11.7
2015-Jan-26 09:21 293 0 gusting 3 11.7
2015-Jan-26 09:16 180 0 gusting 2 11.7
2015-Jan-26 09:11 270 0 gusting 1 11.7
2015-Jan-26 09:06 248 10.6
2015-Jan-26 09:01 248 10.6
2015-Jan-26 08:56 225 10.6
2015-Jan-26 08:51 270 9.4
2015-Jan-26 08:46 180 8.9
2015-Jan-26 08:41 225 0 gusting 1 8.3
2015-Jan-26 08:36 225 8.3
2015-Jan-26 08:31 248 0 gusting 1 8.3
2015-Jan-26 08:26 225 7.8
2015-Jan-26 08:21 270 7.2
2015-Jan-26 08:16 180 6.7
2015-Jan-26 08:11 180 5.6
2015-Jan-26 08:06 225 0 gusting 1 3.9
2015-Jan-26 08:01 225 0 gusting 1 3.9
2015-Jan-26 07:56 270 0 gusting 6 3.3
2015-Jan-26 07:51 090 0 gusting 3 3.3
2015-Jan-26 07:46 180 2 gusting 4 3.3
2015-Jan-26 07:41 180 3.3
2015-Jan-26 07:36 225 3.3
2015-Jan-26 07:31 315 3.3
2015-Jan-26 07:26 315 3.3
2015-Jan-26 07:21 248 3.3
2015-Jan-26 07:16 225 3.9
2015-Jan-26 07:11 248 3.9
2015-Jan-26 07:06 180 3.9
2015-Jan-26 07:01 225 0 gusting 1 3.9
2015-Jan-26 06:56 225 3.9
2015-Jan-26 06:51 248 3.9
2015-Jan-26 06:46 180 0 gusting 1 3.9
2015-Jan-26 05:46 225 3.3
2015-Jan-26 05:41 248 0 gusting 2 3.9
2015-Jan-26 05:36 225 3.3
2015-Jan-26 05:31 180 3.3
2015-Jan-26 05:26 248 3.3
2015-Jan-26 05:21 315 3.3
2015-Jan-26 05:16 248 3.9
2015-Jan-26 05:11 135 3.9
2015-Jan-26 05:06 225 3.9
2015-Jan-26 05:01 225 3.9
2015-Jan-26 04:56 203 0 gusting 3 3.9
2015-Jan-26 04:51 180 0 gusting 1 3.3
2015-Jan-26 04:46 180 3.3
2015-Jan-26 04:41 225 0 gusting 2 4.4
2015-Jan-26 04:36 225 1 gusting 2 3.9
2015-Jan-26 04:31 225 1 gusting 3 3.9
2015-Jan-26 04:26 225 0 gusting 2 4.4
2015-Jan-26 04:21 270 3.9
2015-Jan-26 04:16 315 3.3
2015-Jan-26 04:11 315 3.9
2015-Jan-26 04:06 4.4
2015-Jan-26 04:01 4.4
2015-Jan-26 03:56 3.9
2015-Jan-26 03:51 315 3.9
2015-Jan-26 03:46 315 3.9
2015-Jan-26 03:41 315 4.4
2015-Jan-26 03:36 270 5.6
2015-Jan-26 03:31 180 5.0
2015-Jan-26 03:26 293 0 gusting 3 5.6
2015-Jan-26 03:21 5.6
2015-Jan-26 03:16 5.6
2015-Jan-26 03:11 5.6
2015-Jan-26 03:06 248 0 gusting 2 5.6
2015-Jan-26 03:01 090 0 gusting 3 5.6
2015-Jan-26 02:56 090 5.0
2015-Jan-26 02:51 248 0 gusting 1 5.0
2015-Jan-26 02:46 135 5.0
2015-Jan-26 02:41 135 5.0
2015-Jan-26 02:36 270 0 gusting 1 4.4
2015-Jan-26 02:31 4.4
2015-Jan-26 02:21 225 5.0
2015-Jan-26 02:16 248 0 gusting 1 4.4
2015-Jan-26 02:11 248 5.0
2015-Jan-26 02:01 090 5.6
2015-Jan-26 01:56 248 3.9
2015-Jan-26 01:51 248 3.9
2015-Jan-26 01:46 248 4.4
2015-Jan-26 01:41 248 3.9
2015-Jan-26 01:36 248 4.4
2015-Jan-26 01:31 225 4.4
2015-Jan-26 01:26 248 5.0
2015-Jan-26 01:11 225 5.0
2015-Jan-26 01:06 180 5.0
2015-Jan-26 01:01 225 5.6
2015-Jan-26 00:56 180 5.6
2015-Jan-26 00:51 5.6
2015-Jan-26 00:46 225 6.1
2015-Jan-26 00:41 225 6.1
2015-Jan-26 00:36 135 6.1
2015-Jan-26 00:31 135 6.7
2015-Jan-26 00:26 180 1 gusting 4 6.7
2015-Jan-26 00:21 225 6.7
2015-Jan-26 00:16 225 0 gusting 4 6.7
2015-Jan-26 00:11 225 1 gusting 2 6.7
2015-Jan-26 00:06 225 1 gusting 2 6.7
2015-Jan-26 00:01 225 1 gusting 2 6.7
2015-Jan-25 23:56 180 6.7
2015-Jan-25 23:51 225 6.7
2015-Jan-25 23:46 090 6.7
2015-Jan-25 23:41 6.7
2015-Jan-25 23:36 090 7.2
2015-Jan-25 23:31 090 6.7
2015-Jan-25 23:26 090 0 gusting 3 7.2
2015-Jan-25 23:21 090 7.2
2015-Jan-25 23:16 135 1 gusting 4 7.2
2015-Jan-25 23:11 135 0 gusting 3 7.2
2015-Jan-25 23:06 315 0 gusting 3 7.2
2015-Jan-25 23:01 248 1 gusting 3 7.2
2015-Jan-25 22:56 135 0 gusting 2 7.2
2015-Jan-25 22:51 090 7.2
2015-Jan-25 22:46 6.7
2015-Jan-25 22:41 090 7.2
2015-Jan-25 22:36 248 0 gusting 3 6.7
2015-Jan-25 22:31 090 0 gusting 3 6.7
2015-Jan-25 22:26 6.7
2015-Jan-25 22:21 270 0 gusting 3 7.2
2015-Jan-25 22:16 225 0 gusting 2 6.7
2015-Jan-25 22:11 270 6.7
2015-Jan-25 22:06 225 7.2
2015-Jan-25 22:01 225 7.2
2015-Jan-25 21:56 7.2
2015-Jan-25 21:51 7.8
2015-Jan-25 21:46 8.3
2015-Jan-25 21:41 090 0 gusting 3 7.8
2015-Jan-25 21:36 225 7.8
2015-Jan-25 21:31 315 0 gusting 2 7.8
2015-Jan-25 21:26 7.8
2015-Jan-25 21:21 225 0 gusting 1 7.8
2015-Jan-25 21:16 225 7.8
2015-Jan-25 21:11 7.8
2015-Jan-25 21:06 225 0 gusting 3 7.8
2015-Jan-25 21:01 225 0 gusting 3 8.3
2015-Jan-25 20:56 7.8
2015-Jan-25 20:51 293 0 gusting 3 8.3
2015-Jan-25 20:46 270 8.3
2015-Jan-25 20:41 158 8.3
2015-Jan-25 20:36 315 1 gusting 3 8.3
2015-Jan-25 20:31 090 8.9
2015-Jan-25 20:26 225 1 gusting 6 8.3
2015-Jan-25 20:21 338 2 gusting 6 8.9
2015-Jan-25 20:16 225 0 gusting 3 8.9
2015-Jan-25 20:11 270 3 gusting 7 8.9
2015-Jan-25 20:06 270 3 gusting 6 8.3
2015-Jan-25 20:01 270 1 gusting 5 8.3
2015-Jan-25 19:56 090 1 gusting 3 8.3
2015-Jan-25 19:51 090 3 gusting 6 8.3
2015-Jan-25 19:46 225 8.3
2015-Jan-25 19:41 225 0 gusting 3 8.9
2015-Jan-25 19:36 090 2 gusting 6 8.9
2015-Jan-25 19:31 090 1 gusting 3 9.4
2015-Jan-25 19:26 270 1 gusting 6 8.9
2015-Jan-25 19:21 135 1 gusting 6 9.4
2015-Jan-25 19:16 315 9.4
2015-Jan-25 19:11 180 0 gusting 1 10.0
2015-Jan-25 19:06 225 10.0
2015-Jan-25 19:01 338 10.6
2015-Jan-25 18:56 315 1 gusting 5 10.0
2015-Jan-25 18:51 315 1 gusting 4 10.0
2015-Jan-25 18:46 315 1 gusting 5 10.0
2015-Jan-25 18:41 090 0 gusting 7 10.6
2015-Jan-25 18:36 270 2 gusting 9 10.6
2015-Jan-25 18:31 225 1 gusting 4 10.6
2015-Jan-25 18:26 225 3 gusting 6 10.6
2015-Jan-25 18:21 293 2 gusting 7 10.6
2015-Jan-25 18:16 225 1 gusting 7 10.6
2015-Jan-25 18:11 225 3 gusting 6 11.1
2015-Jan-25 18:06 270 4 gusting 9 10.6
2015-Jan-25 18:01 090 3 gusting 10 10.6
2015-Jan-25 17:56 315 2 gusting 8 11.1
2015-Jan-25 17:51 225 2 gusting 8 11.1
2015-Jan-25 17:46 225 0 gusting 4 11.7
2015-Jan-25 17:41 090 11.7
2015-Jan-25 17:36 315 1 gusting 6 12.2
2015-Jan-25 17:31 270 0 gusting 6 12.2
2015-Jan-25 17:26 135 0 gusting 3 12.2
2015-Jan-25 17:21 090 1 gusting 2 12.8
2015-Jan-25 17:16 270 1 gusting 4 13.3
2015-Jan-25 17:11 090 0 gusting 5 13.9
2015-Jan-25 17:06 315 14.4
2015-Jan-25 17:01 135 2 gusting 6 14.4
2015-Jan-25 16:56 090 1 gusting 4 15.6
2015-Jan-25 16:51 090 3 gusting 6 15.6
2015-Jan-25 16:46 090 0 gusting 4 15.6
2015-Jan-25 16:41 090 1 gusting 6 15.6
2015-Jan-25 16:36 315 3 gusting 6 15.6
2015-Jan-25 16:31 315 2 gusting 4 15.6
2015-Jan-25 16:26 270 1 gusting 5 15.6
2015-Jan-25 16:21 270 1 gusting 3 16.1
2015-Jan-25 16:16 270 1 gusting 6 15.6
2015-Jan-25 16:11 293 2 gusting 6 15.6
2015-Jan-25 16:06 315 1 gusting 5 16.7
2015-Jan-25 16:01 270 1 gusting 3 17.2
2015-Jan-25 15:56 270 1 gusting 5 17.2
2015-Jan-25 15:51 090 1 gusting 8 17.8
2015-Jan-25 15:46 180 17.8
2015-Jan-25 15:41 315 0 gusting 3 17.8
2015-Jan-25 15:36 090 17.8
2015-Jan-25 15:31 090 0 gusting 3 17.2
2015-Jan-25 15:26 270 1 gusting 6 17.2
2015-Jan-25 15:21 315 1 gusting 4 17.8
2015-Jan-25 15:16 135 0 gusting 3 17.2
2015-Jan-25 15:11 338 2 gusting 4 16.1
2015-Jan-25 15:06 090 2 gusting 6 16.7
2015-Jan-25 15:01 180 1 gusting 6 17.8
2015-Jan-25 14:56 225 0 gusting 3 18.3
2015-Jan-25 14:51 270 1 gusting 4 17.8
2015-Jan-25 14:46 225 1 gusting 6 17.2
2015-Jan-25 14:41 090 1 gusting 6 17.2
2015-Jan-25 14:36 270 5 gusting 9 17.8
2015-Jan-25 14:31 315 3 gusting 5 17.8
2015-Jan-25 14:26 315 1 gusting 3 18.9
2015-Jan-25 14:21 18.9
2015-Jan-25 14:16 315 18.9
2015-Jan-25 14:11 225 0 gusting 3 18.9
2015-Jan-25 14:06 225 1 gusting 2 18.3
2015-Jan-25 14:01 225 1 gusting 3 18.3
2015-Jan-25 13:56 090 0 gusting 3 17.8
2015-Jan-25 13:51 17.8
2015-Jan-25 13:46 225 0 gusting 3 17.2
2015-Jan-25 13:41 315 0 gusting 6 17.2
2015-Jan-25 13:36 17.2
2015-Jan-25 13:31 090 1 gusting 5 16.7
2015-Jan-25 13:26 090 1 gusting 6 17.2
2015-Jan-25 13:21 16.7
2015-Jan-25 13:16 180 0 gusting 3 17.8
2015-Jan-25 13:11 16.7
2015-Jan-25 13:06 315 0 gusting 2 16.7
2015-Jan-25 13:01 315 0 gusting 2 16.7
2015-Jan-25 12:56 135 1 gusting 3 16.7
2015-Jan-25 12:51 270 1 gusting 3 15.6
2015-Jan-25 12:46 225 1 gusting 4 16.1
2015-Jan-25 12:41 135 1 gusting 2 15.6
2015-Jan-25 12:36 16.7
2015-Jan-25 12:31 158 16.1
2015-Jan-25 12:26 15.6
2015-Jan-25 12:21 090 1 gusting 6 15.6
2015-Jan-25 12:16 225 15.6
2015-Jan-25 12:11 15.6
2015-Jan-25 12:06 248 1 gusting 4 15.6
2015-Jan-25 12:01 248 1 gusting 4 15.6
2015-Jan-25 11:56 270 1 gusting 6 15.0
2015-Jan-25 11:51 090 1 gusting 6 15.0
2015-Jan-25 11:46 315 15.6
2015-Jan-25 11:41 315 0 gusting 4 15.6
2015-Jan-25 11:36 225 1 gusting 4 14.4
2015-Jan-25 11:31 225 1 gusting 6 14.4
2015-Jan-25 11:26 270 1 gusting 6 14.4
2015-Jan-25 11:21 315 1 gusting 5 15.0
2015-Jan-25 11:16 090 3 gusting 6 14.4
2015-Jan-25 11:11 248 0 gusting 4 15.6
2015-Jan-25 11:06 15.0
2015-Jan-25 11:01 315 2 gusting 7 14.4
2015-Jan-25 10:56 090 1 gusting 5 15.0
2015-Jan-25 10:51 315 1 gusting 5 14.4
2015-Jan-25 10:46 338 3 gusting 6 15.0
2015-Jan-25 10:41 15.0
2015-Jan-25 10:36 15.0
2015-Jan-25 10:31 270 1 gusting 3 15.0
2015-Jan-25 10:26 315 0 gusting 2 15.0
2015-Jan-25 10:21 13.9
2015-Jan-25 10:16 225 13.3
2015-Jan-25 10:11 225 0 gusting 2 12.8
2015-Jan-25 10:06 225 1 gusting 2 12.8
2015-Jan-25 10:01 315 1 gusting 2 12.8
2015-Jan-25 09:56 225 0 gusting 2 13.3
2015-Jan-25 09:51 270 0 gusting 3 12.8
2015-Jan-25 09:46 270 1 gusting 2 13.3
2015-Jan-25 09:41 315 12.8
2015-Jan-25 09:36 135 12.2
2015-Jan-25 09:31 225 11.7
2015-Jan-25 09:26 180 11.1
2015-Jan-25 09:21 270 0 gusting 3 10.6
2015-Jan-25 09:16 225 2 gusting 3 11.7
2015-Jan-25 09:11 225 0 gusting 3 12.2
2015-Jan-25 09:06 225 12.8
2015-Jan-25 09:01 225 12.8
2015-Jan-25 08:56 12.2
2015-Jan-25 08:51 225 11.1
2015-Jan-25 08:46 315 10.6
2015-Jan-25 08:41 9.4
2015-Jan-25 08:36 090 9.4
2015-Jan-25 08:31 8.9
2015-Jan-25 08:26 315 8.9
2015-Jan-25 08:21 225 8.3
2015-Jan-25 08:16 180 7.2
2015-Jan-25 08:11 248 6.7
2015-Jan-25 08:06 180 4.4
2015-Jan-25 08:01 180 0 gusting 1 4.4
2015-Jan-25 07:56 180 4.4
2015-Jan-25 07:51 225 3.9
2015-Jan-25 07:46 135 4.4
2015-Jan-25 07:41 270 5.0
2015-Jan-25 07:36 225 0 gusting 3 5.0
2015-Jan-25 07:31 248 1 gusting 2 5.6
2015-Jan-25 07:26 248 5.6
2015-Jan-25 07:21 315 1 gusting 2 5.6
2015-Jan-25 07:16 090 5.6
2015-Jan-25 07:11 090 0 gusting 1 5.6
2015-Jan-25 07:06 090 5.0
2015-Jan-25 07:01 5.0
2015-Jan-25 06:56 135 5.6
2015-Jan-25 06:51 5.0
2015-Jan-25 06:46 248 4.4
2015-Jan-25 06:41 5.0
2015-Jan-25 06:36 090 5.0
2015-Jan-25 06:31 090 0 gusting 2 4.4
2015-Jan-25 06:26 293 1 gusting 2 4.4
2015-Jan-25 06:21 090 0 gusting 2 3.9
2015-Jan-25 06:16 338 3.9
2015-Jan-25 06:11 3.9
2015-Jan-25 06:06 3.9
2015-Jan-25 06:01 135 3.9
2015-Jan-25 05:56 090 3.9
2015-Jan-25 05:51 135 3.3
2015-Jan-25 05:46 135 3.9
2015-Jan-25 05:41 4.4
2015-Jan-25 05:31 315 4.4
2015-Jan-25 05:26 4.4
2015-Jan-25 05:21 225 4.4
2015-Jan-25 05:16 225 5.0
2015-Jan-25 05:11 225 0 gusting 1 5.0
2015-Jan-25 05:06 225 5.0
2015-Jan-25 05:01 225 5.0
2015-Jan-25 04:56 180 5.0
2015-Jan-25 04:51 180 0 gusting 2 5.0
2015-Jan-25 04:46 180 5.0
2015-Jan-25 04:41 180 5.0
2015-Jan-25 04:36 090 5.6
2015-Jan-25 04:31 090 5.6
2015-Jan-25 04:26 225 0 gusting 1 5.6
2015-Jan-25 04:21 135 6.1
2015-Jan-25 04:16 225 6.7
2015-Jan-25 04:11 180 6.1
2015-Jan-25 04:06 315 0 gusting 1 6.7
2015-Jan-25 04:01 315 0 gusting 2 6.7
2015-Jan-25 03:56 225 1 gusting 2 6.1
2015-Jan-25 03:51 225 6.1
2015-Jan-25 03:46 225 6.7
2015-Jan-25 03:41 135 6.7
2015-Jan-25 03:36 315 7.8
2015-Jan-25 03:31 270 7.2
2015-Jan-25 03:26 135 1 gusting 2 7.2
2015-Jan-25 03:21 7.2
2015-Jan-25 03:16 315 7.2
2015-Jan-25 03:11 090 7.2
2015-Jan-25 03:06 315 0 gusting 3 7.2
2015-Jan-25 03:01 180 7.2
2015-Jan-25 02:56 225 0 gusting 1 7.8
2015-Jan-25 02:51 270 8.3
2015-Jan-25 02:46 315 8.3
2015-Jan-25 02:41 225 1 gusting 3 8.3
2015-Jan-25 02:36 225 8.3
2015-Jan-25 02:31 225 8.9
2015-Jan-25 02:26 180 9.4
2015-Jan-25 02:21 270 1 gusting 6 10.0
2015-Jan-25 02:16 10.6
2015-Jan-25 02:11 10.6
2015-Jan-25 02:06 270 1 gusting 8 10.0
2015-Jan-25 02:01 10.6
2015-Jan-25 01:56 315 2 gusting 13 10.0
2015-Jan-25 01:51 8.9
2015-Jan-25 01:46 225 1 gusting 6 9.4
2015-Jan-25 01:41 315 1 gusting 5 8.3
2015-Jan-25 01:36 090 1 gusting 6 8.9
2015-Jan-25 01:31 315 1 gusting 3 8.9
2015-Jan-25 01:26 090 1 gusting 4 8.9
2015-Jan-25 01:21 090 0 gusting 1 8.9
2015-Jan-25 01:16 090 0 gusting 3 8.9
2015-Jan-25 01:11 090 0 gusting 1 9.4
2015-Jan-25 01:06 315 2 gusting 6 9.4
2015-Jan-25 01:01 315 2 gusting 6 9.4
2015-Jan-25 00:56 9.4
2015-Jan-25 00:51 315 0 gusting 6 8.9
2015-Jan-25 00:46 315 0 gusting 6 9.4
2015-Jan-25 00:41 315 9.4
2015-Jan-25 00:36 315 1 gusting 4 9.4
2015-Jan-25 00:31 293 1 gusting 4 9.4
2015-Jan-25 00:26 090 0 gusting 3 9.4
2015-Jan-25 00:21 9.4
2015-Jan-25 00:16 10.0
2015-Jan-25 00:11 293 3 gusting 6 9.4
2015-Jan-25 00:06 315 1 gusting 4 9.4
2015-Jan-25 00:02 090 0 gusting 2 9.4
2015-Jan-24 23:56 090 1 gusting 5 9.4
2015-Jan-24 23:51 315 0 gusting 3 9.4
2015-Jan-24 23:46 135 9.4
2015-Jan-24 23:41 270 9.4
2015-Jan-24 23:36 248 9.4
2015-Jan-24 23:31 090 1 gusting 5 10.0
2015-Jan-24 23:26 270 2 gusting 6 9.4
2015-Jan-24 23:21 315 2 gusting 7 8.9
2015-Jan-24 23:16 315 3 gusting 6 10.0
2015-Jan-24 23:11 248 2 gusting 9 9.4
2015-Jan-24 23:06 10.6
2015-Jan-24 23:01 10.0
2015-Jan-24 22:56 315 3 gusting 8 10.0
2015-Jan-24 22:51 315 3 gusting 7 10.0
2015-Jan-24 22:46 293 2 gusting 6 10.0
2015-Jan-24 22:41 10.0
2015-Jan-24 22:36 248 3 gusting 6 10.0
2015-Jan-24 22:31 10.6
2015-Jan-24 22:26 315 2 gusting 6 10.6
2015-Jan-24 22:21 113 3 gusting 9 10.6
2015-Jan-24 22:16 10.6
2015-Jan-24 22:11 293 3 gusting 9 10.6
2015-Jan-24 22:06 10.6
2015-Jan-24 22:01 315 6 gusting 13 10.6
2015-Jan-24 21:56 225 2 gusting 7 11.1
2015-Jan-24 21:51 315 5 gusting 13 10.6
2015-Jan-24 21:46 315 6 gusting 17 11.1
2015-Jan-24 21:41 10.6
2015-Jan-24 21:36 11.1
2015-Jan-24 21:31 10.6
2015-Jan-24 21:26 135 3 gusting 10 11.1
2015-Jan-24 21:21 293 6 gusting 13 11.7
2015-Jan-24 21:16 338 6 gusting 18 11.1
2015-Jan-24 21:11 135 5 gusting 21 11.1
2015-Jan-24 21:06 10.6
2015-Jan-24 21:01 10.6
2015-Jan-24 20:56 248 2 gusting 9 11.1
2015-Jan-24 20:51 11.1
2015-Jan-24 20:46 135 4 gusting 11 10.6
2015-Jan-24 20:41 338 7 gusting 14 11.1
2015-Jan-24 20:36 338 7 gusting 18 11.1
2015-Jan-24 20:31 293 6 gusting 18 11.1
2015-Jan-24 20:26 293 9 gusting 18 11.1
2015-Jan-24 20:21 11.1
2015-Jan-24 20:16 293 5 gusting 17 11.1
2015-Jan-24 20:11 338 10 gusting 18 10.6
2015-Jan-24 20:06 315 5 gusting 23 11.1
2015-Jan-24 20:01 11.1
2015-Jan-24 19:56 293 7 gusting 23 10.6
2015-Jan-24 19:51 293 9 gusting 19 10.6
2015-Jan-24 19:46 180 11 gusting 19 10.0
2015-Jan-24 19:41 338 6 gusting 17 10.0
2015-Jan-24 19:36 10.0
2015-Jan-24 19:31 9.4
2015-Jan-24 19:26 090 2 gusting 7 9.4
2015-Jan-24 19:21 293 2 gusting 12 9.4
2015-Jan-24 19:16 270 5 gusting 10 9.4
2015-Jan-24 19:11 270 1 gusting 6 8.9
2015-Jan-24 19:06 338 1 gusting 5 9.4
2015-Jan-24 19:01 338 1 gusting 9 9.4
2015-Jan-24 18:56 315 1 gusting 5 9.4
2015-Jan-24 18:51 135 9.4
2015-Jan-24 18:46 10.0
2015-Jan-24 18:41 9.4
2015-Jan-24 18:36 315 3 gusting 8 9.4
2015-Jan-24 18:31 315 2 gusting 7 9.4
2015-Jan-24 18:26 090 3 gusting 6 10.0
2015-Jan-24 18:21 090 4 gusting 12 10.0
2015-Jan-24 18:16 315 3 gusting 6 10.0
2015-Jan-24 18:11 10.0
2015-Jan-24 18:06 10.0
2015-Jan-24 18:01 090 10.0
2015-Jan-24 17:56 10.0
2015-Jan-24 17:51 135 10.0
2015-Jan-24 17:46 10.6
2015-Jan-24 17:36 315 11.1
2015-Jan-24 17:31 225 0 gusting 1 11.7
2015-Jan-24 17:26 225 11.7
2015-Jan-24 17:21 180 0 gusting 1 12.2
2015-Jan-24 17:16 248 12.8
2015-Jan-24 17:11 225 12.8
2015-Jan-24 17:06 225 13.3
2015-Jan-24 17:01 203 0 gusting 3 13.3
2015-Jan-24 16:56 180 1 gusting 3 13.9
2015-Jan-24 16:51 225 2 gusting 3 13.9
2015-Jan-24 16:46 248 1 gusting 3 14.4
2015-Jan-24 16:41 180 1 gusting 4 14.4
2015-Jan-24 16:36 180 0 gusting 4 15.6
2015-Jan-24 16:31 180 1 gusting 3 16.7
2015-Jan-24 16:26 225 0 gusting 1 17.2
2015-Jan-24 16:21 225 16.7
2015-Jan-24 16:16 225 16.1
2015-Jan-24 16:11 225 16.1
2015-Jan-24 16:06 270 15.6
2015-Jan-24 16:01 225 2 gusting 4 16.7